Torna al catalogo

FENGYUN 1C DEB

AttivoPO
NORAD 29977·DEBRIS·🇨🇳 China

Lanciato May 10, 1999 da Taiyuan Satellite Launch Center

Loading…

Prossimi Passaggi (prossime 24 ore)

TLE

In scadenzaSource: Space-Track

Epoca: Sep 7, 2026, 20:41 UTC

1 29977U 99025LB  26250.86185589  .00001307  00000-0  76554-3 0  9995
2 29977  98.3761  98.0436 0126315 212.0246 160.6419 14.05922658  1320

Traccia FENGYUN 1C DEB in tempo reale con AllMySat

Download on the App Store